This is the latest recevied weather packets stored in our database for station/object K4GSL. If no packets are shown the sender has not sent any weather packets the latest 10 day(s).
| Time | Temp. | Humidity | Pressure | Rain* | Wind** | Luminosity | Snow |
|---|---|---|---|---|---|---|---|
| 1777825059 | 16.67° C | 81% | 1015.9 hPa | 0 mm | - | 44 W/m² | - |
| 1777824755 | 16.67° C | 81% | 1016 hPa | 0 mm | - | 43 W/m² | - |
| 1777824452 | 16.11° C | 82% | 1015.9 hPa | 0 mm | - | 48 W/m² | - |
| 1777824148 | 16.11° C | 83% | 1015.9 hPa | 0 mm | - | 40 W/m² | - |
| 1777823844 | 15.56° C | 84% | 1015.8 hPa | 0 mm | - | 39 W/m² | - |
| 1777823542 | 15.56° C | 85% | 1015.9 hPa | 0 mm | - | 38 W/m² | - |
| 1777823239 | 15° C | 85% | 1015.9 hPa | 0 mm | - | 37 W/m² | - |
| 1777822937 | 15° C | 87% | 1015.7 hPa | 0 mm | - | 37 W/m² | - |
| 1777822634 | 14.44° C | 89% | 1015.9 hPa | 0 mm | - | 35 W/m² | - |
| 1777822332 | 14.44° C | 89% | 1015.9 hPa | 0 mm | - | 35 W/m² | - |
| 1777822030 | 13.89° C | 91% | 1016 hPa | 0 mm | - | 34 W/m² | - |
| 1777821727 | 13.33° C | 92% | 1016 hPa | 0 mm | - | 33 W/m² | - |
| 1777821424 | 12.78° C | 92% | 1016 hPa | 0 mm | - | 32 W/m² | - |
| 1777821121 | 12.78° C | 93% | 1016.1 hPa | 0 mm | - | 31 W/m² | - |
| 1777820818 | 12.22° C | 95% | 1015.8 hPa | 0 mm | - | 31 W/m² | - |
| 1777820514 | 11.67° C | 97% | 1016.1 hPa | 0 mm | - | 29 W/m² | - |
| 1777820211 | 11.67° C | 98% | 1015.9 hPa | 0 mm | - | 29 W/m² | - |
| 1777819909 | 11.11° C | 99% | 1015.9 hPa | 0 mm | - | 28 W/m² | - |
| 1777819606 | 11.11° C | 99% | 1016 hPa | 0 mm | - | 28 W/m² | - |
| 1777819304 | 10.56° C | 99% | 1015.9 hPa | 0 mm | - | 26 W/m² | - |
| 1777819000 | 10.56° C | 99% | 1015.9 hPa | 0 mm | - | 26 W/m² | - |
| 1777818697 | 10° C | 99% | 1015.9 hPa | 0 mm | - | 25 W/m² | - |
| 1777818394 | 10° C | 99% | 1016.2 hPa | 0 mm | - | 23 W/m² | - |
| 1777818090 | 9.44° C | 99% | 1016 hPa | 0 mm | - | 23 W/m² | - |
| 1777817787 | 8.89° C | 99% | 1015.8 hPa | 0 mm | - | 23 W/m² | - |
* Rain latest hour (hover to see other rain measurements)
** Current wind speed in m/s (hover to see current wind gust speed)